Home   Weather   Panipat   Past weeks

Flag for India Past Weather in Panipat, Haryana, India — Yesterday and Last 2 Weeks

Now
86 °F

Fog.


Feels Like: 102 °F
Forecast: 82 / 95 °F
Wind: 7 mph from Northeast

Location: New Delhi Palam Airport

Current Time: Jul 21, 2017 at 2:18:08 am

Latest Report: Jul 21, 2017 at 1:30 am


Visibility: 2 mi

Pressure: 29.50 "Hg

Humidity: 84%

Dew Point: 81 °F

Location of PanipatLocation

Past Weather in Panipat — Graph

°F

Panipat Temperature Yesterday

Maximum temperature yesterday: 93 °F (at 4:30 pm)
Minimum temperature yesterday: 79 °F (at 6:30 am)
Average temperature yesterday: 87 °F

High & Low Weather Summary for the Past Weeks

 TemperatureHumidityPressure
High102 °F (Jul 9, 3:30 pm)100% (Jul 12, 5:30 am)29.65 "Hg (Jul 12, 5:30 am)
Low79 °F (Jul 6, 8:00 pm)40% (Jul 9, 5:00 pm)29.39 "Hg (Jul 20, 5:00 pm)
Average89 °F71%29.56 "Hg
* Reported Jul 6 12:30 am — Jul 21 1:00 am, Panipat. Weather by CustomWeather, © 2017

Note: Actual official high and low records may vary slightly from our data, if they occured in-between our weather recording intervals... More about our weather records

Advertising

Panipat Weather History for the Previous 24 Hours

Scroll right to see more
 ConditionsComfort  
Time TempWeatherWind HumidityBarometerVisibility
1:00 am
Fri, Jul 21
86 °FFog.7 mph84%29.50 "Hg2 mi
12:30 am86 °FFog.6 mph84%29.50 "Hg2 mi
11:30 pm
Thu, Jul 20
88 °FFog.6 mph79%29.53 "Hg2 mi
11:00 pm88 °FFog.7 mph79%29.53 "Hg2 mi
10:30 pm88 °FFog.7 mph79%29.53 "Hg2 mi
10:00 pm88 °FFog.6 mph79%29.53 "Hg2 mi
9:30 pm88 °FFog.5 mph79%29.50 "Hg2 mi
9:00 pm88 °FFog.5 mph79%29.50 "Hg2 mi
8:30 pm90 °FPassing clouds.5 mph75%29.50 "Hg2 mi
8:00 pm91 °FPassing clouds.3 mph67%29.45 "Hg2 mi
7:30 pm91 °FScattered clouds.3 mph67%29.45 "Hg2 mi
7:00 pm91 °FScattered clouds.6 mph67%29.42 "Hg3 mi
6:00 pm91 °FScattered clouds.9 mph67%29.42 "Hg2 mi
5:30 pm93 °FScattered clouds.9 mph63%29.39 "Hg2 mi
5:00 pm93 °FScattered clouds.9 mph63%29.39 "Hg2 mi
4:30 pm93 °FScattered clouds.8 mph59%29.42 "Hg2 mi
4:00 pm91 °FScattered clouds.8 mph67%29.42 "Hg2 mi
3:30 pm90 °FScattered clouds.9 mph71%29.45 "Hg2 mi
3:00 pm90 °FScattered clouds.7 mph71%29.47 "Hg2 mi
2:30 pm88 °FFog.7 mph79%29.50 "Hg2 mi
2:00 pm88 °FFog.7 mph79%29.50 "Hg2 mi
1:30 pm86 °FFog.7 mph84%29.53 "Hg2 mi
1:00 pm86 °FFog.7 mph84%29.53 "Hg2 mi
12:30 pm84 °FFog.7 mph84%29.56 "Hg2 mi
12:00 pm82 °FFog.6 mph89%29.56 "Hg2 mi
11:30 am82 °FFog.6 mph84%29.56 "Hg2 mi
11:00 am81 °FFog.6 mph89%29.56 "Hg2 mi
10:30 am79 °FFog.5 mph94%29.56 "Hg1 mi
10:00 am79 °FLight rain. More clouds than sun.6 mph94%29.56 "Hg1 mi
8:30 am79 °FThunderstorms. More clouds than sun.9 mph100%29.56 "Hg1 mi
8:00 am79 °FThunderstorms. More clouds than sun.7 mph100%29.56 "Hg1 mi
6:30 am79 °FThunderstorms. More clouds than sun.9 mph94%29.56 "Hg1 mi
6:00 am82 °FThunderstorms. Partly cloudy.9 mph89%29.53 "Hg1 mi
5:30 am84 °FThunderstorms. Partly cloudy.9 mph79%29.53 "Hg1 mi
5:00 am84 °FThunderstorms. Partly cloudy.9 mph79%29.50 "Hg1 mi
4:30 am88 °FThunderstorms. Partly cloudy.No wind79%29.50 "Hg1 mi
4:00 am88 °FThunderstorms. Partly cloudy.No wind79%29.50 "Hg2 mi
3:30 am88 °FThunderstorms. Partly cloudy.No wind79%29.50 "Hg2 mi
3:00 am88 °FPassing clouds.No wind75%29.47 "Hg2 mi
2:30 am88 °FPassing clouds.No wind75%29.47 "Hg2 mi
2:00 am90 °FPassing clouds.5 mph71%29.50 "Hg2 mi
Weather by CustomWeather, © 2017

See weather overviewHow to use our weather pages